Location: �quirre
(50.4736°N, 2.2351°E)
Time: 16:33:53
(UTC+00:00)

Meteor 2-9 Rocket - Pass Details

Date: 07 August 2020
Orbit: 792 x 895 km, 81.3° (Epoch: 19 September)

Event Time Altitude Azimuth Distance (km) Brightness Sun altitude
Exits shadow 00:41:28 51° 202° (SSW) 1,053 4.3 -22.5°
Maximum altitude 00:42:58 82° 282° (WNW) 859 4.1 -22.4°
Drops below altitude 10° 00:48:41 10° 11° (N) 2,513 7.8 -22.2°
Sets 00:51:10 0° 13° (NNE) 3,469 8.9 -22.1°
